• Join FlightAware (Why Join?)
  • Login
  • US Flag 
02:06AM EDT


 

Airport Tracker/Info


-or-


 

Live Flight TrackerFlight Track Log ✈ JIA2436 ✈ 26-Apr-2012 ✈ KHSV - KCLT

Flight Track Log - Related Links

Times and Time Zones

All times are in EDT time to prevent confusion due to time zone crossing. See the JIA2436 flight status page for this flight to view local times or setup timezone preferences in your user account.

Time Position Orientation Groundspeed Altitude Reporting Facility
EDT Latitude Longitude Course Direction KTS MPH feet Rate Location/Type
01:00PM 34.5714 -86.7631 134° Southeast 209 241 2,900  Level Memphis Center
01:01PM 34.5172 -86.6947 87° East 287 330 4,900 2,400 Climbing Memphis Center
01:02PM 34.5208 -86.6039 81° East 325 374 7,700 2,460 Climbing Memphis Center
01:03PM 34.5342 -86.4972 81° East 325 374 9,900 1,680 Climbing Memphis Center
01:04PM 34.5492 -86.3806 56° Northeast 332 382 11,100 1,440 Climbing Memphis Center
01:05PM 34.6064 -86.2769 52° Northeast 340 391 12,800 1,740 Climbing Memphis Center
01:06PM 34.6758 -86.1703 53° Northeast 350 403 14,600 1,740 Climbing Memphis Center
01:07PM 34.7392 -86.0686 52° Northeast 362 417 16,300 1,620 Climbing Memphis Center
01:08PM 34.8044 -85.9667 51° Northeast 375 432 17,900 1,320 Climbing Memphis Center
01:08PM 34.8425 -85.9092 56° Northeast 379 436 18,400 1,320 Climbing Atlanta Center
01:09PM 34.9025 -85.8014 60° Northeast 379 436 20,000 1,440 Climbing Atlanta Center
01:10PM 34.9583 -85.6836 61° Northeast 379 436 21,300 1,200 Climbing Atlanta Center
01:11PM 35.0142 -85.5603 62° Northeast 390 449 22,400 960 Climbing Atlanta Center
01:12PM 35.0678 -85.4369 61° Northeast 406 467 23,300 900 Climbing Atlanta Center
01:13PM 35.1256 -85.3111 62° Northeast 411 473 24,300 960 Climbing Atlanta Center
01:14PM 35.1808 -85.1847 61° Northeast 411 473 25,300 960 Climbing Atlanta Center
01:15PM 35.2383 -85.0586 60° Northeast 411 473 26,300 840 Climbing Atlanta Center
01:16PM 35.2956 -84.9369 57° Northeast 411 473 27,000 300 Climbing Atlanta Center
01:17PM 35.3611 -84.8131 47° Northeast 416 479 27,000  Level Atlanta Center
01:18PM 35.4431 -84.7042 40° Northeast 428 493 27,000  Level Atlanta Center
01:19PM 35.5397 -84.6028 40° Northeast 434 499 27,000  Level Atlanta Center
01:20PM 35.6361 -84.5039 41° Northeast 439 505 27,000  Level Atlanta Center
01:21PM 35.7239 -84.4097 39° Northeast 456 525 27,000  Level Atlanta Center
01:22PM 35.8222 -84.3103 40° Northeast 456 525 27,000  Level Atlanta Center
01:23PM 35.9183 -84.2106 59° Northeast 451 519 27,000  Level Atlanta Center
01:24PM 35.9831 -84.0772 91° East 451 519 27,000  Level Atlanta Center
01:25PM 35.9811 -83.9131 141° Southeast 437 503 27,000  Level Atlanta Center
01:26PM 35.8786 -83.8106 169° South 379 436 27,000 -60 Level Atlanta Center
01:27PM 35.7492 -83.7803 151° Southeast 398 458 26,900  Descending Atlanta Center
01:28PM 35.6197 -83.6914 153° Southeast 437 503 27,000  Climbing Atlanta Center
01:29PM 35.4964 -83.6153 152° Southeast 478 550 27,000  Level Atlanta Center
01:30PM 35.3731 -83.5344 149° Southeast 497 572 27,000  Level Atlanta Center
01:31PM 35.2578 -83.4486 133° Southeast 502 578 27,000  Level Atlanta Center
01:32PM 35.1717 -83.3350 95° East 474 545 27,000  Level Atlanta Center
01:33PM 35.1603 -83.1903 87° East 407 468 27,000  Level Atlanta Center
01:34PM 35.1656 -83.0428 88° East 407 468 27,000 -120 Level Atlanta Center
01:35PM 35.1706 -82.8953 87° East 418 481 26,800 -660 Descending Atlanta Center
01:36PM 35.1772 -82.7378 56° Northeast 441 507 25,700 -900 Descending Atlanta Center
01:37PM 35.2406 -82.6247 36° Northeast 427 491 25,000 -780 Descending Atlanta Center
01:38PM 35.3317 -82.5444 38° Northeast 391 450 24,200 -720 Descending Atlanta Center
01:39PM 35.4017 -82.4769 39° Northeast 385 443 23,600 -1,500 Descending Atlanta Center
01:40PM 35.5006 -82.3781 84° East 385 443 21,200 -2,220 Descending Atlanta Center
01:41PM 35.5111 -82.2425 85° East 352 405 19,200 -2,400 Descending Atlanta Center
01:42PM 35.5197 -82.1147 81° East 371 427 16,400 -2,700 Descending Atlanta Center
01:43PM 35.5361 -81.9842 81° East 371 427 13,800 -2,520 Descending Atlanta Center
01:44PM 35.5528 -81.8536 80° East 377 434 11,300 -1,620 Descending Atlanta Center
01:45PM 35.5658 -81.7667 100° East 363 418 11,000 -180 Descending Atlanta Center
01:46PM 35.5464 -81.6292 94° East 353 406 11,000 -300 Level Atlanta Center
01:47PM 35.5400 -81.5197 94° East 347 399 10,400 -1,260 Descending Atlanta Center
01:48PM 35.5336 -81.4050 94° East 336 387 8,600 -1,500 Descending Atlanta Center
01:50PM 35.5264 -81.2675 93° East 316 364 7,000 -900 Descending Atlanta Center
01:50PM 35.5219 -81.1733 104° East 280 322 6,600 -780 Descending Atlanta Center
01:51PM 35.5078 -81.1022 118° Southeast 267 307 5,600 -1,200 Descending Atlanta Center
01:52PM 35.4747 -81.0269 147° Southeast 264 304 4,500 -840 Descending Atlanta Center
01:53PM 35.4194 -80.9831 147° Southeast 240 276 4,000 -480 Descending Atlanta Center